{"data":{"norad_id":59922,"intl_designator":"2024-106A","name":"STARLINK-31872","alt_names":[],"object_type":"PAYLOAD","status":"ACTIVE","operator":null,"country":"US","launch_date":"2024-06-01","launch_site_code":"AFETR","launch_vehicle":null,"mission":null,"orbit_class":"UNKNOWN","rcs_meters":null,"size_class":null,"mass_kg":null,"dimensions":null,"purposes":["comms"],"wikipedia_slug":null,"has_3d_model":false,"image_url":null,"decayed_at":null,"tle_current":{"epoch":"2026-05-25T00:38:30.441408Z","epoch_age_seconds":76289,"freshness":"FRESH","line1":"1 59922U 24106A   26145.02674122 -.00000062  00000+0  72798-5 0  9998","line2":"2 59922  42.9992 261.7504 0000796 287.3562  72.7202 15.27574763112230","mean_motion":15.27574763,"eccentricity":7.96e-5,"inclination_deg":42.9992,"raan_deg":261.7504,"arg_perigee_deg":287.3562,"mean_anomaly_deg":72.7202,"bstar":7.2798e-6,"rev_number":11223,"period_min":94.267071889299,"perigee_km":482.51862588496,"apogee_km":483.61092920795,"semimajor_km":6861.2017775465,"source":"CELESTRAK","updated_at":"2026-05-25T13:38:19.121263Z"}}}